Погода в Ельцах

Россия / Тверская область     56°39′46″N   33°50′53″E
темп.,
°C
ветер,
м/с
пор.,
м/с
влажн.,
%
обл.,
%
осадки,
мм/ч
давл.,
гПа
погр.,
м
14 апреля, ср
ср1400:00+10ю248210 0.0 101889
03:00+10ююв2787100 0.0 1017157
06:00+9ю289767 0.3 1017206
09:00+12ююз358763 0.5 1017476
12:00+14юз356954 0.2 10171030
15:00+14юз236590 0.8 1017872
18:00+12сз4782100 0.3 1017335
21:00+9ссз3789100 0.4 1019402
15 апреля, чт
чт1500:00+8ссв4991100 0.3 1019425
03:00+6ссв4992100 0.6 1020502
06:00+6св41093100 0.2 1020524
09:00+6св41092100 0.5 1021522
12:00+7св51185100 0.0 1021629
15:00+7св51281100 0.0 1021693
18:00+6св61380100 0.0 1022791
21:00+5св61485100 0.0 1023697
16 апреля, пт
пт1600:00+5св61486100 0.0 1023658
03:00+4всв51387100 0.0 1023676
06:00+4всв51489100 0.0 1023607
09:00+5всв51382100 0.1 1024598
12:00+10всв51069100 0.1 1024810
15:00+12всв6962100 0.1 1024989
18:00+10всв61265100 0.0 1024884
21:00+8всв51367100 0.0 1026728
17 апреля, сб
сб1700:00+5всв41364100 0.0 1027527
03:00+4всв412725 0.0 1027423
06:00+3всв4137783 0.0 1028421
09:00+7всв5116065 0.0 1029596
12:00+11в684747 0.0 10291055
15:00+12всв583971 0.0 10281286
18:00+11всв594235 0.0 10281175
21:00+6всв3116184 0.0 1030336
18 апреля, вс
вс1800:00+5всв3126919 0.0 1030353
03:00+3всв3117761 0.0 1031257
06:00+2всв311795 0.0 1031261
09:00+7в49555 0.0 1031572
12:00+11в56395 0.0 10301365
15:00+13в45355 0.0 10301676
18:00+12в354334 0.0 10301337
21:00+7в256648 0.0 103184